Weather Roundup
Issued by NWS

Home | Current Version | Previous Version | Graphics & Text | Print | Product List | Glossary Off
Versions: 1 2 3 4 5 6 7 8 9 10 11 12 13 14 15 16 17 18 19 20 21 22 23 24 25 26 27 28 29 30 31 32 33 34 35 36 37 38 39 40 41 42 43 44 45 46 47 48 49 50

000
NZUS93 KARX 291459
HRRWXR

CURRENT HOURLY OBSERVATIONS ACROSS
MUCH OF THE UPPER MISSISSIPPI VALLEY
NATIONAL WEATHER SERVICE LA CROSSE WI
900 AM CST THU JAN 29 2015


...SOUTHEAST MINNESOTA...


CITY           SKY/WX    TMP DP  RH WIND       PRES   REMARKS
ROCHESTER      CLOUDY    31  28  89 NW24      30.07R FOG     WCI  17
ROCHESTER/MAYO CLOUDY    31  29  91 NW22G30   30.07R WCI  19
WINONA         CLOUDY    34  28  80 NW23      30.06R WCI  22
AUSTIN         CLOUDY    28  27  93 NW21G29   30.10R FOG     WCI  15
ALBERT LEA     CLOUDY    28  27  93 NW14G24   30.13R WCI  17
DODGE CENTER   CLOUDY    30  28  93 NW18G28   30.09R FOG     WCI  18
PRESTON        CLOUDY    32  28  84 NW15G26   30.04R WCI  22
OWATONNA       CLOUDY    28  27  93 NW22G29   30.14R WCI  15
FARIBAULT      CLOUDY    30  27  86 NW14G22   30.15R WCI  20
$$

...ELSEWHERE IN MINNESOTA...


CITY           SKY/WX    TMP DP  RH WIND       PRES   REMARKS
MINNEAPOLIS    CLOUDY    30  24  78 NW13G24   30.15R WCI  20
INTNL FALLS    LGT SNOW  14   9  80 NW18G26   30.18R WCI  -3
DULUTH         PTSUNNY   26  19  74 NW13G24   30.04R WCI  15
RED WING       CLOUDY    34  25  69 N13G23    30.10R WCI  25
REDWOOD FALLS  CLOUDY    28  21  75 NW23G32   30.27R WCI  14
MANKATO        CLOUDY   N/A N/A N/A N24G30    30.18R
WORTHINGTON    CLOUDY    30  23  74 NW25G33   30.27R WCI  16
FAIRMONT       CLOUDY    30  21  69 N25G36    30.20R WCI  16
$$

...SOUTHWEST WISCONSIN...


CITY           SKY/WX    TMP DP  RH WIND       PRES   REMARKS
LA CROSSE      LGT RAIN  35  30  82 NW18G24   30.02R WCI  24
PRAIRIE DU CHI CLOUDY    34  28  79 NW16      30.00R WCI  24
BOSCOBEL       CLOUDY    35  28  75 NW12G18   30.00R WCI  27
LONE ROCK      NOT AVBL
PLATTEVILLE    CLOUDY    32  29  87 NW13G24   29.95R WCI  22
FORT MC COY    CLOUDY    32  30  91 NW12G21   29.99R FOG     WCI  23
CAMP DOUGLAS   FRZ DRZL  32  32 100 NW12      29.96R FOG     WCI  23
VIROQUA        CLOUDY    31  31 100 NW16G23   29.96R WCI  20
WIS DELLS      NOT AVBL
$$

...ELSEWHERE IN WISCONSIN...


CITY           SKY/WX    TMP DP  RH WIND       PRES   REMARKS
MILWAUKEE      CLOUDY    32  25  75 NW15      29.83R HAZE    WCI  22
MADISON        CLOUDY    31  25  78 NW13G24   29.91R WCI  21
GREEN BAY      CLOUDY    31  25  78 NW15      29.86R HAZE    WCI  20
EAU CLAIRE     NOT AVBL
BLACK RVR FLS  CLOUDY    33  29  88 N10G21    29.98R WCI  24
MEDFORD        CLOUDY    28  25  86 NW18G24   29.92R WCI  15
WAUSAU         CLOUDY    30  25  81 NW12G28   29.89R WCI  20
WIS RAPIDS     CLOUDY    30  25  81 NW13      29.94R WCI  20
MARSHFIELD     CLOUDY    30  26  85 NW17      29.93R WCI  18
RICE LAKE      CLOUDY    31  25  78 NW14G22   30.04R WCI  21
$$

...NORTHEAST IOWA...


CITY           SKY/WX    TMP DP  RH WIND       PRES   REMARKS
DECORAH        CLOUDY    34  28  80 NW22G28   30.00R WCI  22
MASON CITY     CLOUDY    30  26  85 NW25G37   30.14R WCI  16
CHARLES CITY   CLOUDY    32  32 100 NW22G32   30.07R WCI  19
OELWEIN        MIX PCPN  34  32  93 NW23G29   30.03R WCI  22
$$

...ELSEWHERE IN IOWA...


CITY           SKY/WX    TMP DP  RH WIND       PRES   REMARKS
DES MOINES     CLOUDY    35  29  78 NW23G32   30.18R WCI  23
IOWA CITY      CLOUDY    35  31  85 NW14G22   30.06R WCI  26
FORT DODGE     CLOUDY    30  25  80 NW16G29   30.20R WCI  19
$$

...NORTHERN ILLINOIS...


CITY           SKY/WX    TMP DP  RH WIND       PRES   REMARKS
CHICAGO-OHARE  LGT SNOW  32  29  88 NW21G26   29.81R FOG     WCI  20
CHICAGO-MIDWAY LGT SNOW  36  29  75 NW21      29.81R FOG     WCI  25
MOLINE         CLOUDY    35  28  75 NW14G22   30.00R WCI  26
ROCKFORD       CLOUDY    34  27  75 NW20G30   29.92R WCI  23
PEORIA         CLOUDY    37  30  75 NW14G25   29.97R WCI  28
$$

NOTE: "FAIR" INDICATES FEW OR NO CLOUDS BELOW 12,000 FEET WITH NO
SIGNIFICANT WEATHER AND/OR OBSTRUCTIONS TO VISIBILITY. WIND
SPEEDS ARE IN MILES-PER-HOUR.



USA.gov is the U.S. government's official web portal to all federal, state and local government web resources and services.